• In Austria
  • List of Countries
  • For 7 days
  • Water Temperature
  • Satellite Maps
  • Weather Map
  • News
  • Weather Widgets
  • user-avatar
    Login

    Hourly Weather Harare

    Today, 17 December, Sunday

    Time Temperature Precipitation Wind Pressure Humidity
    00:00 +19°C° 0 mm 1 mps 640 mmHg 91%
    01:00 +18°C° 0 mm 1 mps 639 mmHg 92%
    02:00 +16°C° 0 mm 1 mps 639 mmHg 93%
    03:00 +16°C° 0 mm 1 mps 639 mmHg 94%
    04:00 +15°C° 0 mm 0 mps 639 mmHg 94%
    05:00 +14°C° 0 mm 0 mps 639 mmHg 95%
    06:00 +16°C° 0 mm 0 mps 639 mmHg 87%
    07:00 +20°C° 0 mm 1 mps 640 mmHg 79%
    08:00 +22°C° 0 mm 1 mps 641 mmHg 70%
    09:00 +24°C° 0 mm 1 mps 641 mmHg 62%
    10:00 +26°C° 0 mm 1 mps 641 mmHg 53%
    11:00 +28°C° 0 mm 1 mps 642 mmHg 45%
    12:00 +29°C° 0 mm 2 mps 641 mmHg 43%
    13:00 +29°C° 0 mm 2 mps 641 mmHg 41%
    14:00 +30°C° 0 mm 1 mps 640 mmHg 39%
    15:00 +29°C° 0 mm 2 mps 640 mmHg 42%
    16:00 +28°C° 0 mm 2 mps 639 mmHg 44%
    17:00 +28°C° 0 mm 2 mps 638 mmHg 47%
    18:00 +26°C° 0 mm 2 mps 638 mmHg 55%
    19:00 +24°C° 0 mm 2 mps 638 mmHg 62%
    20:00 +21°C° 0 mm 2 mps 638 mmHg 70%
    21:00 +21°C° 0 mm 2 mps 638 mmHg 72%
    22:00 +20°C° 0 mm 3 mps 638 mmHg 75%
    23:00 +20°C° 0 mm 3 mps 639 mmHg 77%

    Tomorrow, 18 December, Monday

    Time Temperature Precipitation Wind Pressure Humidity
    00:00 +19°C° 0 mm 2 mps 638 mmHg 78%
    01:00 +19°C° 0 mm 2 mps 638 mmHg 80%
    02:00 +18°C° 0 mm 2 mps 638 mmHg 82%
    03:00 +18°C° 0 mm 2 mps 638 mmHg 83%
    04:00 +17°C° 0 mm 2 mps 638 mmHg 84%
    05:00 +18°C° 0 mm 1 mps 638 mmHg 85%
    06:00 +19°C° 0 mm 1 mps 638 mmHg 78%
    07:00 +20°C° 0 mm 2 mps 639 mmHg 71%
    08:00 +23°C° 0 mm 2 mps 640 mmHg 65%
    09:00 +25°C° 0 mm 2 mps 640 mmHg 58%
    10:00 +27°C° 0 mm 2 mps 640 mmHg 51%
    11:00 +29°C° 0 mm 2 mps 641 mmHg 44%
    12:00 +29°C° 0 mm 2 mps 640 mmHg 42%
    13:00 +30°C° 0 mm 2 mps 639 mmHg 41%
    14:00 +30°C° 0 mm 2 mps 639 mmHg 39%
    15:00 +30°C° 0 mm 2 mps 638 mmHg 41%
    16:00 +29°C° 0 mm 2 mps 638 mmHg 43%
    17:00 +29°C° 0 mm 2 mps 637 mmHg 45%
    18:00 +27°C° 0 mm 2 mps 637 mmHg 50%
    19:00 +25°C° 0 mm 2 mps 637 mmHg 56%
    20:00 +24°C° 0 mm 2 mps 637 mmHg 61%
    21:00 +23°C° 0 mm 2 mps 637 mmHg 63%
    22:00 +23°C° 0 mm 2 mps 637 mmHg 64%
    23:00 +21°C° 0 mm 3 mps 638 mmHg 65%

    Day after tomorrow, 19 December, Tuesday

    Time Temperature Precipitation Wind Pressure Humidity
    00:00 +20°C° 0 mm 3 mps 637 mmHg 67%
    01:00 +20°C° 0 mm 3 mps 637 mmHg 69%
    02:00 +19°C° 0 mm 3 mps 637 mmHg 70%
    03:00 +19°C° 0 mm 2 mps 636 mmHg 75%
    04:00 +18°C° 0 mm 2 mps 636 mmHg 80%
    05:00 +17°C° 0 mm 2 mps 636 mmHg 85%
    06:00 +19°C° 0 mm 2 mps 637 mmHg 79%
    07:00 +21°C° 0 mm 2 mps 638 mmHg 72%
    08:00 +24°C° 0 mm 2 mps 639 mmHg 65%
    09:00 +26°C° 0 mm 2 mps 639 mmHg 57%
    10:00 +28°C° 0 mm 2 mps 640 mmHg 48%
    11:00 +30°C° 0 mm 2 mps 640 mmHg 40%
    12:00 +31°C° 0 mm 2 mps 639 mmHg 38%
    13:00 +31°C° 0 mm 2 mps 638 mmHg 36%
    14:00 +32°C° 0 mm 2 mps 638 mmHg 34%
    15:00 +31°C° 0 mm 2 mps 637 mmHg 38%
    16:00 +30°C° 0 mm 2 mps 637 mmHg 42%
    17:00 +29°C° 0 mm 2 mps 637 mmHg 46%
    18:00 +27°C° 0.7 mm 3 mps 637 mmHg 55%
    19:00 +25°C° 0.7 mm 3 mps 637 mmHg 63%
    20:00 +22°C° 0.7 mm 3 mps 637 mmHg 72%
    21:00 +22°C° 0.7 mm 3 mps 637 mmHg 77%
    22:00 +21°C° 0.7 mm 3 mps 638 mmHg 81%
    23:00 +20°C° 0.7 mm 3 mps 638 mmHg 86%

    20 December, Wednesday

    Time Temperature Precipitation Wind Pressure Humidity
    00:00 +20°C° 0.4 mm 3 mps 638 mmHg 88%
    01:00 +19°C° 0.4 mm 3 mps 637 mmHg 89%
    02:00 +19°C° 0.4 mm 3 mps 637 mmHg 91%
    03:00 +19°C° 0 mm 3 mps 637 mmHg 92%
    04:00 +19°C° 0 mm 2 mps 637 mmHg 92%
    05:00 +18°C° 0 mm 2 mps 637 mmHg 93%
    06:00 +20°C° 0 mm 3 mps 638 mmHg 87%
    07:00 +21°C° 0 mm 3 mps 639 mmHg 81%
    08:00 +22°C° 0 mm 4 mps 639 mmHg 75%
    09:00 +23°C° 0.1 mm 4 mps 639 mmHg 69%
    10:00 +26°C° 0.1 mm 4 mps 640 mmHg 64%
    11:00 +27°C° 0.1 mm 4 mps 640 mmHg 58%
    12:00 +28°C° 0.2 mm 3 mps 639 mmHg 55%
    13:00 +28°C° 0.2 mm 3 mps 639 mmHg 51%
    14:00 +29°C° 0.2 mm 3 mps 639 mmHg 48%
    15:00 +28°C° 1 mm 3 mps 638 mmHg 55%
    16:00 +26°C° 1 mm 3 mps 638 mmHg 61%
    17:00 +25°C° 1 mm 3 mps 638 mmHg 68%
    18:00 +24°C° 1.2 mm 3 mps 638 mmHg 73%
    19:00 +21°C° 1.2 mm 3 mps 638 mmHg 79%
    20:00 +20°C° 1.2 mm 3 mps 639 mmHg 84%
    21:00 +20°C° 0.2 mm 2 mps 639 mmHg 85%
    22:00 +19°C° 0.2 mm 2 mps 639 mmHg 86%
    23:00 +19°C° 0.2 mm 2 mps 639 mmHg 87%

    21 December, Thursday

    Time Temperature Precipitation Wind Pressure Humidity
    00:00 +19°C° 0 mm 2 mps 639 mmHg 87%
    01:00 +19°C° 0 mm 2 mps 638 mmHg 88%
    02:00 +19°C° 0 mm 2 mps 638 mmHg 88%
    03:00 +19°C° 0 mm 2 mps 638 mmHg 89%
    04:00 +18°C° 0 mm 2 mps 639 mmHg 89%
    05:00 +18°C° 0 mm 2 mps 639 mmHg 90%
    06:00 +19°C° 0.1 mm 3 mps 639 mmHg 84%
    07:00 +21°C° 0.1 mm 3 mps 640 mmHg 79%
    08:00 +22°C° 0.1 mm 4 mps 641 mmHg 74%
    09:00 +23°C° 0.5 mm 4 mps 641 mmHg 69%
    10:00 +25°C° 0.5 mm 4 mps 641 mmHg 65%
    11:00 +26°C° 0.5 mm 4 mps 641 mmHg 60%
    12:00 +26°C° 1.2 mm 3 mps 640 mmHg 61%
    13:00 +26°C° 1.2 mm 3 mps 639 mmHg 61%
    14:00 +27°C° 1.2 mm 3 mps 639 mmHg 62%
    15:00 +26°C° 1.1 mm 2 mps 638 mmHg 64%
    16:00 +26°C° 1.1 mm 2 mps 638 mmHg 66%
    17:00 +25°C° 1.1 mm 2 mps 638 mmHg 68%
    18:00 +24°C° 1.3 mm 2 mps 638 mmHg 74%
    19:00 +23°C° 1.3 mm 2 mps 638 mmHg 80%
    20:00 +20°C° 1.3 mm 2 mps 638 mmHg 85%
    21:00 +21°C° 0.8 mm 1 mps 638 mmHg 86%
    22:00 +21°C° 0.8 mm 1 mps 638 mmHg 86%
    23:00 +21°C° 0.8 mm 1 mps 639 mmHg 87%

    22 December, Friday

    Time Temperature Precipitation Wind Pressure Humidity
    00:00 +20°C° 0.5 mm 1 mps 638 mmHg 88%
    01:00 +20°C° 0.5 mm 1 mps 638 mmHg 89%
    02:00 +20°C° 0.5 mm 1 mps 638 mmHg 90%
    03:00 +20°C° 0.1 mm 1 mps 638 mmHg 91%
    04:00 +19°C° 0.1 mm 2 mps 638 mmHg 91%
    05:00 +18°C° 0.1 mm 2 mps 638 mmHg 92%
    06:00 +19°C° 0 mm 2 mps 638 mmHg 88%
    07:00 +20°C° 0 mm 3 mps 639 mmHg 85%
    08:00 +22°C° 0 mm 3 mps 639 mmHg 81%
    09:00 +24°C° 0.2 mm 3 mps 639 mmHg 74%
    10:00 +25°C° 0.2 mm 3 mps 639 mmHg 68%
    11:00 +27°C° 0.2 mm 3 mps 639 mmHg 62%
    12:00 +27°C° 0.5 mm 3 mps 639 mmHg 60%
    13:00 +28°C° 0.5 mm 3 mps 638 mmHg 58%
    14:00 +28°C° 0.5 mm 3 mps 638 mmHg 57%
    15:00 +27°C° 2.4 mm 2 mps 637 mmHg 63%
    16:00 +26°C° 2.4 mm 2 mps 637 mmHg 69%
    17:00 +25°C° 2.4 mm 1 mps 636 mmHg 75%
    18:00 +24°C° 1.4 mm 1 mps 637 mmHg 78%
    19:00 +21°C° 1.4 mm 0 mps 637 mmHg 80%
    20:00 +20°C° 1.4 mm 0 mps 637 mmHg 82%
    21:00 +19°C° 0 mm 0 mps 637 mmHg 83%
    22:00 +19°C° 0 mm 0 mps 636 mmHg 83%
    23:00 +19°C° 0 mm 0 mps 636 mmHg 83%
    Show more